Location: Bagert
(43.0772°N, 1.0828°E)
Time: 07:03:37
(UTC+00:00)

Daily predictions for brighter satellites

Satellite Brightness Start Highest point End
(mag) Time Altitude Azimuth Time Altitude Azimuth Time Altitude Azimuth
NOSS 3-2 (C) 4.2 20:03:07 10° SW 20:08:38 58° NW 20:15:01 10° NNE
Cosmos 1461 3.6 20:07:04 10° NNW 20:11:06 42° NE 20:14:56 10° ESE
Helios 1A Rocket 4.4 20:08:04 10° SSW 20:11:48 35° W 20:15:33 10° NNW
Meteor 2-20 4.5 20:06:31 10° S 20:12:35 72° E 20:18:38 10° NNE
ATLAS CENTAUR R/B 3.2 20:10:04 10° N 20:13:31 22° NE 20:17:06 10° E
SL-8 R/B 4.0 20:11:54 10° WNW 20:16:42 67° NNE 20:21:28 10° ESE
Cosmos 1452 Rocket 3.5 20:12:37 10° SSW 20:17:54 83° ESE 20:23:12 10° NNE
Resurs 1-3 3.8 20:14:10 10° S 20:18:33 76° WSW 20:22:57 10° NNW
SL-4 R/B 3.9 20:17:22 10° SSE 20:18:50 12° SE 20:20:18 10° ESE
Cosmos 2219 Rocket 3.4 20:17:15 10° SSE 20:21:30 22° E 20:25:46 10° NE
Cosmos 2333 Rocket 3.2 20:18:01 10° SSE 20:22:44 27° ESE 20:27:27 10° NE
FALCON 9 DEB 3.5 20:21:29 10° SSW 20:24:22 34° SE 20:27:15 10° ENE
Cosmos 1025 Rocket 4.1 20:24:15 10° SSE 20:27:59 28° E 20:31:43 10° NNE
Lacrosse 5 rocket 0.9 20:24:18 10° SW 20:28:03 79° SE 20:31:40 10° NE
Cosmos 1850 Rocket 4.1 20:22:52 10° NNW 20:28:10 72° ENE 20:33:24 10° SSE
Cosmos 1758 3.3 20:24:15 10° N 20:28:15 86° W 20:32:12 10° S
ERS-1 Rocket 4.5 20:24:38 10° ESE 20:28:28 22° ENE 20:32:19 10° NNE
Cosmos 1844 4.2 20:25:33 10° NNW 20:30:54 46° ENE 20:36:02 11° SE
Spot 2 Rocket 4.4 20:28:33 10° SE 20:33:06 35° ENE 20:37:41 10° N
Cosmos 1727 Rocket 4.0 20:27:20 10° S 20:33:39 82° E 20:39:56 10° N
Cosmos 1331 Rocket 4.2 20:29:58 10° S 20:35:02 53° ESE 20:40:10 10° NNE
FALCON 9 DEB 2.7 20:36:53 10° SW 20:39:57 73° SE 20:43:03 10° ENE
CENTAUR R/B 4.4 20:35:59 10° WSW 20:41:34 36° NW 20:48:07 10° NNE
KORONAS-FOTON 3.7 20:38:21 10° S 20:42:06 68° E 20:45:53 10° NNE
Cosmos 1726 3.8 20:40:09 10° NNW 20:43:24 31° W 20:46:39 10° SSW
CARTOSAT-1 4.4 20:40:17 13° SE 20:43:44 35° ENE 20:47:41 10° N
Terra 3.4 20:41:19 10° ESE 20:44:48 21° ENE 20:48:19 10° NNE
Cosmos 2360 Rocket 2.2 20:39:49 10° SSW 20:45:28 89° ESE 20:51:09 10° NNE
SPOT 1/Viking Rocket 3.6 20:40:41 11° SSE 20:45:38 65° ENE 20:50:44 10° N
Cosmos 1674 2.5 20:42:28 10° S 20:46:09 77° E 20:49:52 10° N
OBJECT-B 3.8 20:44:52 10° WSW 20:46:11 12° W 20:47:29 10° WNW
FALCON 9 DEB 2.7 20:44:50 10° SW 20:47:55 66° SE 20:51:00 10° ENE
CZ-2C R/B 3.8 20:44:43 10° NNE 20:49:30 70° ESE 20:54:14 10° S
Cosmos 2322 Rocket 3.2 20:44:08 10° SW 20:49:41 52° WNW 20:55:16 10° NNE
SL-16 R/B 3.7 20:44:30 10° SW 20:49:49 41° WNW 20:55:11 10° NNE
FALCON 9 DEB 2.8 20:47:24 10° SW 20:50:30 87° SE 20:53:37 10° NE
ASTRO E2 4.5 20:49:40 10° SSW 20:51:57 15° S 20:52:46 14° SSE
SPOT 5 3.8 20:48:16 14° SE 20:52:07 35° ENE 20:56:30 10° N
Cosmos 1953 2.3 20:48:27 10° N 20:52:32 76° E 20:56:03 13° SSE
USA 245 4.2 20:48:16 13° SSE 20:52:47 68° ENE 20:58:39 10° N
Cosmos 1975 Rocket 3.1 20:48:59 10° S 20:53:19 81° W 20:57:45 10° N
Cosmos 1302 Rocket 4.5 20:51:32 10° S 20:56:25 41° ESE 21:01:19 10° NE
Cosmos 1802 Rocket 4.2 20:50:24 10° N 20:56:37 58° E 21:01:56 15° SSE
Cosmos 1459 Rocket 3.9 20:52:00 10° N 20:58:03 73° E 21:03:32 13° SSE
Cosmos 1741 Rocket 4.5 20:57:38 10° NNW 21:02:49 60° WSW 21:07:41 12° S
Cosmos 1300 3.9 21:01:09 10° NNE 21:04:29 28° ENE 21:06:19 19° ESE
Resurs 01 Rocket 2.7 21:00:32 10° S 21:04:43 42° W 21:08:55 10° NNW
Lacrosse 5 3.8 21:02:01 10° WNW 21:05:36 20° WSW 21:09:10 10° SSW
Meteor 1-16 Rocket 4.2 21:02:18 10° NNW 21:07:43 76° W 21:12:35 12° S
Cosmos 1000 Rocket 4.5 21:02:56 10° S 21:09:05 90° ESE 21:15:16 10° N
Cosmos 1340 2.8 21:07:28 18° SSE 21:10:01 53° E 21:13:43 10° NNE
Cosmos 2322 3.6 21:07:32 10° SSW 21:13:08 70° ESE 21:18:46 10° NNE
SPOT 3 Rocket 4.4 21:09:34 10° S 21:14:32 47° W 21:19:33 10° NNW
COSMOS 2428 3.0 21:09:23 10° S 21:14:53 49° ESE 21:20:24 10° NE
Aureole 1 Rocket 4.4 21:09:52 10° NNW 21:16:08 76° WSW 21:22:43 15° S
Cosmos 2278 Rocket 3.7 21:12:12 10° N 21:16:51 25° NE 21:20:55 12° ESE
Cosmos 1844 Rocket 3.0 21:12:34 10° NNW 21:18:11 64° WSW 21:22:31 17° S
Cosmos 389 Rocket 4.4 21:21:08 10° NNE 21:23:24 16° ENE 21:24:17 15° E
Cosmos 1867 4.4 21:19:58 10° NNW 21:25:10 41° NE 21:28:54 18° ESE
ATLAS 2A CENTAUR R/B 4.1 21:17:26 10° SW 21:25:34 18° SSW 21:27:33 16° S
Cosmos 1864 Rocket 4.5 21:20:53 10° N 21:27:05 74° E 21:31:19 21° SSE
Cosmos 968 Rocket 3.9 21:25:42 10° N 21:30:41 50° ENE 21:33:29 24° SE
Cosmos 1908 4.5 21:29:20 10° NNW 21:32:55 37° W 21:35:50 14° SSW
Cosmos 1626 3.0 21:29:30 10° SSW 21:33:00 48° WNW 21:36:36 10° N
Cosmos 2123 Rocket 4.0 21:29:46 13° S 21:35:34 89° E 21:41:57 10° N
Cosmos 1544 Rocket 4.1 21:31:59 10° NNW 21:36:23 57° W 21:39:23 19° SSW
Cosmos 2061 Rocket 4.1 21:31:51 10° N 21:38:20 88° W 21:42:50 21° S
Uosat 12 SS-18 rocket 4.0 21:35:14 10° SSW 21:39:31 76° ESE 21:44:25 10° NE
Cosmos 1992 Rocket 4.5 21:37:58 26° SSE 21:40:16 41° ESE 21:45:11 10° NE
Meteor 2-10 Rocket 4.1 21:35:34 10° N 21:40:22 42° ENE 21:42:36 27° SE
ARIANE 5 R/B 3.0 21:38:34 22° S 21:41:21 59° W 21:45:48 10° NNW
Cosmos 2233 Rocket 4.1 21:36:00 10° N 21:42:06 60° E 21:45:35 26° SSE
Cosmos 1346 Rocket 3.3 21:47:03 36° SE 21:48:02 43° E 21:51:52 10° NNE
Cosmos 405 3.5 21:48:59 10° NNW 21:52:22 52° W 21:53:33 33° SSW
ATLAS CENTAUR R/B 2.0 21:48:21 10° NW 21:52:39 52° WSW 21:54:30 31° S
Cosmos 1980 4.2 21:51:14 29° SSE 21:53:16 39° ESE 21:58:30 10° NE
BREEZE-M DEB (TANK) 3.8 21:39:31 10° SW 21:54:37 57° SSE 21:58:39 10° ENE
ATLAS 3B R/B 3.1 21:48:53 10° SW 21:55:21 62° NW 22:02:04 10° NNE
SL-4 R/B 1.8 21:53:45 10° SW 21:57:56 68° SE 22:01:49 10° ENE
SL-8 R/B 4.4 21:54:40 10° WNW 21:59:05 37° SW 22:00:18 31° S
Centaur D AC-28 4.4 22:00:00 24° SSE 22:02:00 26° SE 22:23:03 10° E
Celestis-02/Orion 38 4.5 22:01:33 34° SSE 22:03:51 90° ENE 22:09:03 10° NNW
CZ-4B DEB 4.2 22:03:26 59° SSW 22:03:52 72° W 22:07:02 10° NNW
Cosmos 2219 Rocket 2.9 21:59:26 10° SW 22:05:00 56° WNW 22:10:36 10° NNE
Meteor 2-5 Rocket 4.0 22:01:10 17° SSW 22:05:26 67° WNW 22:11:03 10° N
Cosmos 2333 Rocket 3.2 22:01:11 10° SW 22:06:43 47° WNW 22:12:14 10° NNE
ERS-1 Rocket 3.7 22:04:07 23° SSW 22:06:56 47° W 22:11:49 10° NNW
Geosat 4.3 22:04:47 31° S 22:07:03 56° WSW 22:11:59 10° NW
Lacrosse 5 rocket 4.0 22:04:52 10° WNW 22:07:29 18° NNW 22:10:06 10° NNE
Iridium 2 4.2 22:12:19 41° E 22:12:32 42° E 22:16:06 10° NNE
Cosmos 2228 3.0 22:08:26 10° N 22:12:52 78° E 22:14:06 46° SSE
USA 215 3.4 22:15:13 10° ENE 22:21:34 51° SE 22:25:28 24° SSW
Terra 2.5 22:20:12 29° SSW 22:22:13 46° W 22:26:49 10° NNW
SL-16 R/B 3.5 22:23:55 23° ESE 22:24:16 23° E 22:28:34 10° NE
Cosmos 2237 Rocket 2.1 22:23:45 36° S 22:26:03 68° ESE 22:31:39 10° NNE
Cosmos 1184 Rocket 3.7 22:29:49 38° ENE 22:29:49 38° ENE 22:32:17 10° NNE
Cosmos 1455 2.3 22:25:59 10° N 22:29:45 56° E 22:29:59 54° E
SPOT 5 4.4 22:27:29 19° SW 22:30:10 29° W 22:34:26 10° NW
Cosmos 1464 Rocket 4.4 22:25:39 10° N 22:31:54 55° ENE 22:34:26 35° SE
Cosmos 192 4.4 22:33:47 49° SSE 22:34:51 62° ESE 22:39:43 10° NNE
Cosmos 1503 Rocket 4.0 22:30:52 10° NNW 22:36:17 82° ENE 22:37:58 45° SSE
GEOS 3 Rocket 4.3 22:38:08 25° ESE 22:40:59 49° NE 22:46:07 10° NNW
ATLAS CENTAUR R/B 2.9 22:40:45 44° S 22:42:09 58° ESE 22:52:24 10° NE
USA 267 4.2 22:48:29 10° E 22:54:35 44° NNE 23:00:43 10° NW
Okean 1-7 Rocket 3.5 22:54:15 62° SE 22:54:42 67° E 22:59:07 10° NNE
Cosmos 389 Rocket 4.0 22:55:08 10° NW 22:58:03 26° W 22:58:04 26° W
BREEZE-M DEB (TANK) 3.9 22:55:50 10° WNW 22:58:55 42° N 23:06:45 10° ENE
Cosmos 2278 Rocket 2.5 22:55:44 10° NNW 23:01:16 55° WSW 23:02:45 43° SSW
Cosmos 1726 Rocket 4.2 22:58:56 10° NNW 23:03:13 46° W 23:03:59 42° WSW
Cosmos 2058 Rocket 2.9 22:59:28 10° N 23:03:55 78° W 23:04:24 67° SSW
Cosmos 2034 Rocket 4.0 23:01:53 10° N 23:08:04 72° E 23:10:01 45° SSE
Centaur D AC-29 4.3 23:02:48 10° WSW 23:08:31 14° SW 23:09:10 14° SW
Meteor 1-21 Rocket 4.3 23:14:29 44° SSW 23:16:20 74° WNW 23:22:05 10° N
SJ 16-02 2.3 23:12:36 10° N 23:16:41 36° ENE 23:17:27 33° E
Spot 4 4.0 23:20:17 52° SW 23:20:59 59° W 23:25:43 10° NNW
Cosmos 1777 Rocket 3.9 23:16:30 10° NNW 23:21:50 85° ENE 23:22:56 57° SSE
GP-B 3.8 23:21:35 10° NNE 23:25:47 40° E 23:26:01 40° E
Cosmos 1943 Rocket 2.8 23:21:29 10° NNW 23:26:49 48° ENE 23:28:53 32° ESE
Meteor 1-4 Rocket 3.0 23:23:47 10° N 23:26:36 56° N 23:26:36 56° N
Cosmos 1441 Rocket 4.0 23:29:44 43° W 23:29:53 43° WNW 23:33:33 10° N
ALOS 2 2.5 23:35:17 69° SW 23:35:29 71° WSW 23:39:54 10° NNW
Tsikada Rocket 3.9 23:34:13 49° S 23:36:01 84° E 23:42:13 10° N
SL-4 R/B 3.7 23:34:07 10° W 23:37:44 31° NNW 23:41:07 10° NE
USA 229 DEB 3.7 23:38:45 46° SSE 23:39:59 52° ESE 23:46:27 10° NE
USA 229 3.8 23:38:53 45° SSE 23:40:05 51° ESE 23:46:33 10° NE
NOSS 3-1 (C) 3.1 23:46:44 53° SSW 23:48:07 89° SE 23:54:18 10° NE
Cosmos 1626 Rocket 4.0 23:49:24 48° WSW 23:49:54 51° WNW 23:54:14 10° N
Cosmos 1408 4.1 23:53:09 29° ENE 23:53:09 29° ENE 23:55:51 10° NNE
Cosmos 724 4.3 23:46:45 10° NW 23:52:55 74° WSW 23:54:20 53° S
Cosmos 1825 4.2 23:54:28 19° E 23:54:28 19° E 23:56:52 10° NE
